Time,TemperatureF,DewpointF,PressureIn,WindDirection,WindDirectionDegrees,WindSpeedMPH,WindSpeedGustMPH,Humidity,HourlyPrecipIn,Conditions,Clouds,dailyrainin,SoftwareType,DateUTC
2013-08-23 00:02:00,63.0,60.6,28.60,SSE,158,0.0,0.0,92,0.04,,,0.04,meteohub,2013-08-23 07:02:00,
2013-08-23 00:07:00,63.0,60.6,28.63,SE,135,0.0,0.0,92,0.04,,,0.00,meteohub,2013-08-23 07:07:00,
2013-08-23 00:12:00,63.0,60.6,28.63,SE,135,0.0,0.0,92,0.04,,,0.00,meteohub,2013-08-23 07:12:00,
2013-08-23 00:17:00,63.0,60.6,28.63,SE,135,0.0,0.0,92,0.04,,,0.00,meteohub,2013-08-23 07:17:00,
2013-08-23 00:22:00,63.0,60.6,28.63,SE,135,0.0,0.0,92,0.04,,,0.00,meteohub,2013-08-23 07:22:00,
2013-08-23 00:27:00,62.8,60.4,28.63,SE,135,0.0,0.0,92,0.04,,,0.00,meteohub,2013-08-23 07:27:00,
2013-08-23 00:32:00,62.8,60.4,28.63,SE,135,0.0,0.0,92,0.04,,,0.00,meteohub,2013-08-23 07:32:00,
2013-08-23 00:37:00,62.8,60.4,28.63,SE,135,0.0,0.0,92,0.04,,,0.00,meteohub,2013-08-23 07:37:00,
2013-08-23 00:42:00,62.8,60.4,28.63,SE,135,0.0,0.0,92,0.00,,,0.00,meteohub,2013-08-23 07:42:00,
2013-08-23 00:47:00,62.8,60.4,28.63,SE,135,0.0,0.0,92,0.04,,,0.04,meteohub,2013-08-23 07:47:00,
2013-08-23 00:52:00,62.8,60.4,28.63,SE,135,0.0,0.0,92,0.04,,,0.04,meteohub,2013-08-23 07:52:00,
2013-08-23 00:57:00,62.6,60.3,28.63,SE,135,0.0,0.0,92,0.08,,,0.08,meteohub,2013-08-23 07:57:00,
2013-08-23 01:02:00,62.4,60.4,28.63,SE,135,0.0,0.0,93,0.08,,,0.08,meteohub,2013-08-23 08:02:00,
2013-08-23 01:07:00,62.2,59.9,28.66,SE,135,0.0,0.0,92,0.08,,,0.08,meteohub,2013-08-23 08:07:00,
2013-08-23 01:12:00,61.9,59.5,28.66,SE,135,0.0,0.0,92,0.08,,,0.08,meteohub,2013-08-23 08:12:00,
2013-08-23 01:17:00,61.7,59.4,28.66,SE,135,0.0,0.0,92,0.12,,,0.12,meteohub,2013-08-23 08:17:00,
2013-08-23 01:22:00,61.7,59.4,28.66,SE,135,0.0,0.0,92,0.12,,,0.12,meteohub,2013-08-23 08:22:00,
2013-08-23 01:27:00,61.5,59.2,28.66,SE,135,0.0,0.0,92,0.12,,,0.12,meteohub,2013-08-23 08:27:00,
2013-08-23 01:32:00,61.5,59.2,28.66,SE,135,0.0,0.0,92,0.12,,,0.12,meteohub,2013-08-23 08:32:00,
2013-08-23 01:37:00,61.3,59.0,28.66,SE,135,0.0,0.0,92,0.16,,,0.16,meteohub,2013-08-23 08:37:00,
2013-08-23 01:42:00,61.3,59.0,28.66,SE,135,0.0,0.0,92,0.12,,,0.16,meteohub,2013-08-23 08:42:00,
2013-08-23 01:47:00,61.2,58.8,28.66,SE,135,0.0,0.0,92,0.12,,,0.16,meteohub,2013-08-23 08:47:00,
2013-08-23 01:52:00,61.2,58.8,28.66,South,180,0.0,1.0,92,0.08,,,0.16,meteohub,2013-08-23 08:52:00,
2013-08-23 01:57:00,61.0,58.6,28.66,South,180,0.0,1.0,92,0.08,,,0.16,meteohub,2013-08-23 08:57:00,
2013-08-23 02:02:00,61.0,58.6,28.66,South,180,0.0,1.0,92,0.08,,,0.16,meteohub,2013-08-23 09:02:00,
2013-08-23 02:07:00,61.0,58.6,28.66,SSE,158,0.0,0.0,92,0.13,,,0.21,meteohub,2013-08-23 09:07:00,
2013-08-23 02:12:00,61.0,58.6,28.66,SSE,158,0.0,0.0,92,0.09,,,0.21,meteohub,2013-08-23 09:12:00,
2013-08-23 02:17:00,61.0,58.6,28.66,SSE,158,0.0,0.0,92,0.09,,,0.21,meteohub,2013-08-23 09:17:00,
2013-08-23 02:22:00,60.8,58.5,28.63,SSE,158,0.0,0.0,92,0.09,,,0.21,meteohub,2013-08-23 09:22:00,
2013-08-23 02:27:00,60.8,58.5,28.63,SSE,158,0.0,0.0,92,0.09,,,0.21,meteohub,2013-08-23 09:27:00,
2013-08-23 02:32:00,60.8,58.5,28.63,SSE,158,0.0,0.0,92,0.05,,,0.21,meteohub,2013-08-23 09:32:00,
2013-08-23 02:37:00,60.6,58.6,28.63,SSE,158,0.0,0.0,93,0.05,,,0.21,meteohub,2013-08-23 09:37:00,
2013-08-23 02:42:00,60.6,58.6,28.63,SSE,158,0.0,0.0,93,0.05,,,0.21,meteohub,2013-08-23 09:42:00,
2013-08-23 02:47:00,60.6,58.6,28.63,South,180,0.0,0.0,93,0.05,,,0.21,meteohub,2013-08-23 09:47:00,
2013-08-23 02:52:00,60.6,58.6,28.63,SSE,158,0.0,0.0,93,0.05,,,0.21,meteohub,2013-08-23 09:52:00,
2013-08-23 02:57:00,60.6,58.6,28.63,SSE,158,0.0,0.0,93,0.05,,,0.21,meteohub,2013-08-23 09:57:00,
2013-08-23 03:02:00,60.6,58.6,28.63,SSE,158,0.0,0.0,93,0.05,,,0.21,meteohub,2013-08-23 10:02:00,
2013-08-23 03:07:00,60.6,58.6,28.63,SSE,158,0.0,0.0,93,0.00,,,0.21,meteohub,2013-08-23 10:07:00,
2013-08-23 03:12:00,60.6,58.6,28.63,SSE,158,0.0,0.0,93,0.00,,,0.21,meteohub,2013-08-23 10:12:00,
2013-08-23 03:17:00,60.6,58.6,28.63,SSE,158,0.0,0.0,93,0.00,,,0.21,meteohub,2013-08-23 10:17:00,
2013-08-23 03:22:00,60.4,58.5,28.63,SSE,158,0.0,0.0,93,0.00,,,0.21,meteohub,2013-08-23 10:22:00,
2013-08-23 03:27:00,60.4,58.5,28.63,SSE,158,0.0,0.0,93,0.00,,,0.21,meteohub,2013-08-23 10:27:00,
2013-08-23 03:32:00,60.6,58.6,28.63,SE,135,0.0,0.0,93,0.00,,,0.21,meteohub,2013-08-23 10:32:00,
2013-08-23 03:37:00,60.4,58.1,28.63,South,180,0.0,0.0,92,0.00,,,0.21,meteohub,2013-08-23 10:37:00,
2013-08-23 03:42:00,60.1,57.7,28.63,NW,315,0.0,2.0,92,0.00,,,0.21,meteohub,2013-08-23 10:42:00,
2013-08-23 03:47:00,59.7,57.4,28.63,NW,315,1.0,2.0,92,0.00,,,0.21,meteohub,2013-08-23 10:47:00,
2013-08-23 03:52:00,59.4,57.0,28.63,NNW,338,0.0,3.0,92,0.00,,,0.21,meteohub,2013-08-23 10:52:00,
2013-08-23 03:57:00,59.2,56.8,28.63,North,0,0.0,3.0,92,0.00,,,0.21,meteohub,2013-08-23 10:57:00,
2013-08-23 04:02:00,59.0,56.7,28.63,NW,315,0.0,2.0,92,0.00,,,0.21,meteohub,2013-08-23 11:02:00,
2013-08-23 04:07:00,58.8,56.8,28.63,West,270,0.0,2.0,93,0.00,,,0.21,meteohub,2013-08-23 11:07:00,
2013-08-23 04:12:00,58.6,56.7,28.63,West,270,0.0,2.0,93,0.00,,,0.21,meteohub,2013-08-23 11:12:00,
2013-08-23 04:17:00,58.6,56.7,28.63,NW,315,0.0,2.0,93,0.00,,,0.21,meteohub,2013-08-23 11:17:00,
2013-08-23 04:22:00,58.3,56.3,28.63,NNE,22,0.0,2.0,93,0.00,,,0.21,meteohub,2013-08-23 11:22:00,
2013-08-23 04:27:00,58.1,56.1,28.63,NNW,338,0.0,2.0,93,0.00,,,0.21,meteohub,2013-08-23 11:27:00,
2013-08-23 04:32:00,57.9,55.6,28.63,NW,315,0.0,2.0,92,0.00,,,0.21,meteohub,2013-08-23 11:32:00,
2013-08-23 04:37:00,57.7,55.4,28.60,WNW,292,0.0,2.0,92,0.00,,,0.21,meteohub,2013-08-23 11:37:00,
2013-08-23 04:42:00,57.6,55.2,28.60,SW,225,0.0,0.0,92,0.00,,,0.21,meteohub,2013-08-23 11:42:00,
2013-08-23 04:47:00,57.6,55.6,28.60,SW,225,0.0,0.0,93,0.00,,,0.21,meteohub,2013-08-23 11:47:00,
2013-08-23 04:52:00,57.4,55.4,28.60,SW,225,0.0,0.0,93,0.00,,,0.21,meteohub,2013-08-23 11:52:00,
2013-08-23 04:57:00,57.4,55.4,28.60,SW,225,0.0,0.0,93,0.00,,,0.21,meteohub,2013-08-23 11:57:00,
2013-08-23 05:02:00,57.2,54.9,28.60,WSW,248,0.0,0.0,92,0.00,,,0.21,meteohub,2013-08-23 12:02:00,
2013-08-23 05:07:00,57.0,55.0,28.63,WSW,248,0.0,0.0,93,0.00,,,0.21,meteohub,2013-08-23 12:07:00,
2013-08-23 05:12:00,57.0,55.0,28.63,WSW,248,0.0,0.0,93,0.00,,,0.21,meteohub,2013-08-23 12:12:00,
2013-08-23 05:17:00,57.0,55.0,28.63,WSW,248,0.0,0.0,93,0.00,,,0.21,meteohub,2013-08-23 12:17:00,
2013-08-23 05:22:00,57.0,55.0,28.63,WSW,248,0.0,0.0,93,0.00,,,0.21,meteohub,2013-08-23 12:22:00,
2013-08-23 05:27:00,57.0,55.0,28.63,WSW,248,0.0,0.0,93,0.00,,,0.21,meteohub,2013-08-23 12:27:00,
2013-08-23 05:32:00,57.0,55.0,28.63,WSW,248,0.0,0.0,93,0.00,,,0.21,meteohub,2013-08-23 12:32:00,
2013-08-23 05:37:00,57.0,55.0,28.63,SW,225,0.0,0.0,93,0.00,,,0.21,meteohub,2013-08-23 12:37:00,
2013-08-23 05:42:00,56.8,54.9,28.63,SW,225,0.0,0.0,93,0.00,,,0.21,meteohub,2013-08-23 12:42:00,
2013-08-23 05:47:00,56.8,54.9,28.63,SW,225,0.0,0.0,93,0.00,,,0.21,meteohub,2013-08-23 12:47:00,
2013-08-23 05:52:00,56.8,54.9,28.63,SW,225,0.0,0.0,93,0.00,,,0.21,meteohub,2013-08-23 12:52:00,
2013-08-23 05:57:00,56.8,54.9,28.63,SSW,202,0.0,0.0,93,0.00,,,0.21,meteohub,2013-08-23 12:57:00,
2013-08-23 06:02:00,56.8,54.9,28.63,SSW,202,0.0,0.0,93,0.00,,,0.21,meteohub,2013-08-23 13:02:00,
2013-08-23 06:07:00,56.7,54.7,28.63,SSW,202,0.0,0.0,93,0.00,,,0.21,meteohub,2013-08-23 13:07:00,
2013-08-23 06:12:00,56.7,54.7,28.63,SSW,202,0.0,0.0,93,0.00,,,0.21,meteohub,2013-08-23 13:12:00,
2013-08-23 06:17:00,56.7,54.7,28.63,SSW,202,0.0,0.0,93,0.00,,,0.21,meteohub,2013-08-23 13:17:00,
2013-08-23 06:22:00,56.7,54.7,28.63,SSW,202,0.0,0.0,93,0.00,,,0.21,meteohub,2013-08-23 13:22:00,
2013-08-23 06:27:00,56.7,54.7,28.63,SSW,202,0.0,0.0,93,0.00,,,0.21,meteohub,2013-08-23 13:27:00,
2013-08-23 06:32:00,56.7,54.7,28.63,SSW,202,0.0,0.0,93,0.00,,,0.21,meteohub,2013-08-23 13:32:00,
2013-08-23 06:37:00,56.7,54.7,28.60,SSW,202,0.0,1.0,93,0.00,,,0.21,meteohub,2013-08-23 13:37:00,
2013-08-23 06:42:00,56.5,54.5,28.60,SSW,202,0.0,1.0,93,0.00,,,0.21,meteohub,2013-08-23 13:42:00,
2013-08-23 06:47:00,56.7,54.7,28.60,SSW,202,0.0,0.0,93,0.00,,,0.21,meteohub,2013-08-23 13:47:00,
2013-08-23 06:52:00,56.7,54.7,28.63,SSW,202,0.0,0.0,93,0.00,,,0.21,meteohub,2013-08-23 13:52:00,
2013-08-23 06:57:00,56.7,54.7,28.63,SW,225,0.0,0.0,93,0.00,,,0.21,meteohub,2013-08-23 13:57:00,
2013-08-23 07:02:00,56.5,54.5,28.63,WSW,248,0.0,1.0,93,0.00,,,0.21,meteohub,2013-08-23 14:02:00,
2013-08-23 07:07:00,56.5,54.5,28.63,WSW,248,0.0,1.0,93,0.00,,,0.21,meteohub,2013-08-23 14:07:00,
2013-08-23 07:12:00,56.5,54.5,28.63,WSW,248,0.0,1.0,93,0.00,,,0.21,meteohub,2013-08-23 14:12:00,
2013-08-23 07:17:00,56.5,54.5,28.63,WSW,248,0.0,0.0,93,0.00,,,0.21,meteohub,2013-08-23 14:17:00,
2013-08-23 07:22:00,56.5,54.5,28.66,WSW,248,0.0,0.0,93,0.00,,,0.21,meteohub,2013-08-23 14:22:00,
2013-08-23 07:27:00,56.5,54.5,28.66,WSW,248,0.0,0.0,93,0.00,,,0.21,meteohub,2013-08-23 14:27:00,
2013-08-23 07:32:00,56.5,54.5,28.66,WSW,248,0.0,0.0,93,0.00,,,0.21,meteohub,2013-08-23 14:32:00,
2013-08-23 07:37:00,56.5,54.5,28.63,WNW,292,1.0,0.0,93,0.00,,,0.21,meteohub,2013-08-23 14:37:00,
2013-08-23 07:42:00,56.5,54.5,28.63,WNW,292,0.0,2.0,93,0.00,,,0.21,meteohub,2013-08-23 14:42:00,
2013-08-23 07:47:00,56.5,54.5,28.63,West,270,0.0,2.0,93,0.00,,,0.21,meteohub,2013-08-23 14:47:00,
2013-08-23 07:52:00,56.5,54.5,28.63,WSW,248,0.0,2.0,93,0.00,,,0.21,meteohub,2013-08-23 14:52:00,
2013-08-23 07:57:00,56.5,54.5,28.63,WSW,248,0.0,0.0,93,0.00,,,0.21,meteohub,2013-08-23 14:57:00,
2013-08-23 08:02:00,56.7,54.7,28.63,WSW,248,0.0,0.0,93,0.00,,,0.21,meteohub,2013-08-23 15:02:00,
2013-08-23 08:07:00,56.7,54.7,28.66,WSW,248,0.0,0.0,93,0.00,,,0.21,meteohub,2013-08-23 15:07:00,
2013-08-23 08:12:00,56.8,54.9,28.66,WSW,248,0.0,0.0,93,0.00,,,0.21,meteohub,2013-08-23 15:12:00,
2013-08-23 08:17:00,56.8,54.9,28.66,WSW,248,0.0,0.0,93,0.00,,,0.21,meteohub,2013-08-23 15:17:00,
2013-08-23 08:22:00,56.8,54.9,28.66,WSW,248,0.0,0.0,93,0.00,,,0.21,meteohub,2013-08-23 15:22:00,
2013-08-23 08:27:00,56.8,54.9,28.66,WSW,248,0.0,0.0,93,0.00,,,0.21,meteohub,2013-08-23 15:27:00,
2013-08-23 08:32:00,56.8,54.9,28.66,WSW,248,0.0,0.0,93,0.00,,,0.21,meteohub,2013-08-23 15:32:00,
2013-08-23 08:37:00,57.0,55.0,28.66,WSW,248,0.0,0.0,93,0.00,,,0.21,meteohub,2013-08-23 15:37:00,
2013-08-23 08:42:00,57.0,55.0,28.66,WSW,248,0.0,0.0,93,0.00,,,0.21,meteohub,2013-08-23 15:42:00,
2013-08-23 08:47:00,57.0,55.0,28.66,WSW,248,0.0,0.0,93,0.00,,,0.21,meteohub,2013-08-23 15:47:00,
2013-08-23 08:52:00,57.0,55.0,28.66,WSW,248,0.0,0.0,93,0.00,,,0.21,meteohub,2013-08-23 15:52:00,
2013-08-23 08:57:00,57.0,55.0,28.66,WSW,248,0.0,0.0,93,0.00,,,0.21,meteohub,2013-08-23 15:57:00,
2013-08-23 09:02:00,57.2,54.9,28.66,WSW,248,0.0,0.0,92,0.00,,,0.21,meteohub,2013-08-23 16:02:00,
2013-08-23 09:07:00,57.2,54.9,28.66,WSW,248,0.0,0.0,92,0.00,,,0.21,meteohub,2013-08-23 16:07:00,
2013-08-23 09:12:00,57.2,54.9,28.66,WSW,248,0.0,0.0,92,0.00,,,0.21,meteohub,2013-08-23 16:12:00,
2013-08-23 09:17:00,57.2,54.9,28.66,WSW,248,0.0,0.0,92,0.00,,,0.21,meteohub,2013-08-23 16:17:00,
2013-08-23 09:22:00,57.2,54.9,28.66,WSW,248,0.0,0.0,92,0.00,,,0.21,meteohub,2013-08-23 16:22:00,
2013-08-23 09:27:00,57.2,54.9,28.66,WSW,248,0.0,0.0,92,0.00,,,0.21,meteohub,2013-08-23 16:27:00,
2013-08-23 09:32:00,57.2,54.9,28.66,WSW,248,0.0,0.0,92,0.00,,,0.21,meteohub,2013-08-23 16:32:00,
2013-08-23 09:37:00,57.4,55.0,28.66,NW,315,2.0,0.0,92,0.00,,,0.21,meteohub,2013-08-23 16:37:00,
2013-08-23 09:42:00,57.4,55.0,28.66,NW,315,0.0,2.0,92,0.00,,,0.21,meteohub,2013-08-23 16:42:00,
2013-08-23 09:47:00,57.6,55.2,28.66,NNW,338,0.0,2.0,92,0.00,,,0.21,meteohub,2013-08-23 16:47:00,
2013-08-23 09:52:00,57.6,55.2,28.66,NW,315,0.0,2.0,92,0.00,,,0.21,meteohub,2013-08-23 16:52:00,
2013-08-23 09:57:00,57.6,55.2,28.66,NW,315,0.0,2.0,92,0.00,,,0.21,meteohub,2013-08-23 16:57:00,
2013-08-23 10:02:00,57.7,55.4,28.66,NW,315,0.0,2.0,92,0.00,,,0.21,meteohub,2013-08-23 17:02:00,
2013-08-23 10:07:00,57.7,55.4,28.66,NW,315,0.0,2.0,92,0.00,,,0.21,meteohub,2013-08-23 17:07:00,
2013-08-23 10:12:00,57.9,55.6,28.66,NW,315,0.0,0.0,92,0.00,,,0.21,meteohub,2013-08-23 17:12:00,
2013-08-23 10:17:00,58.3,55.9,28.66,NW,315,0.0,0.0,92,0.00,,,0.21,meteohub,2013-08-23 17:17:00,
2013-08-23 10:22:00,58.5,56.1,28.66,WNW,292,0.0,0.0,92,0.00,,,0.21,meteohub,2013-08-23 17:22:00,
2013-08-23 10:28:00,58.6,56.3,28.66,WNW,292,0.0,0.0,92,0.00,,,0.21,meteohub,2013-08-23 17:28:00,
2013-08-23 10:33:00,58.6,56.3,28.66,WNW,292,0.0,0.0,92,0.00,,,0.21,meteohub,2013-08-23 17:33:00,
2013-08-23 10:39:00,58.8,56.5,28.66,WNW,292,2.0,2.0,92,0.00,,,0.21,meteohub,2013-08-23 17:39:00,
2013-08-23 10:44:00,58.8,56.5,28.66,WNW,292,1.0,2.0,92,0.00,,,0.21,meteohub,2013-08-23 17:44:00,
2013-08-23 10:49:00,58.8,56.5,28.66,NW,315,0.0,2.0,92,0.00,,,0.21,meteohub,2013-08-23 17:49:00,
2013-08-23 10:55:00,59.2,56.8,28.66,NW,315,0.0,3.0,92,0.00,,,0.21,meteohub,2013-08-23 17:55:00,
2013-08-23 11:00:00,59.4,57.0,28.66,WNW,292,2.0,2.0,92,0.00,,,0.21,meteohub,2013-08-23 18:00:00,
2013-08-23 11:06:00,59.4,56.7,28.69,NW,315,0.0,3.0,91,0.00,,,0.21,meteohub,2013-08-23 18:06:00,
2013-08-23 11:11:00,59.5,56.8,28.69,WNW,292,0.0,3.0,91,0.00,,,0.21,meteohub,2013-08-23 18:11:00,
2013-08-23 11:17:00,59.7,57.0,28.69,WNW,292,0.0,3.0,91,0.00,,,0.21,meteohub,2013-08-23 18:17:00,
2013-08-23 11:22:00,59.9,57.2,28.66,WNW,292,0.0,0.0,91,0.00,,,0.21,meteohub,2013-08-23 18:22:00,
2013-08-23 11:27:00,59.9,57.2,28.66,NW,315,1.0,2.0,91,0.00,,,0.21,meteohub,2013-08-23 18:27:00,
2013-08-23 11:32:00,59.7,57.0,28.66,WNW,292,0.0,2.0,91,0.00,,,0.21,meteohub,2013-08-23 18:32:00,
2013-08-23 11:37:00,59.7,57.0,28.66,WSW,248,0.0,3.0,91,0.00,,,0.21,meteohub,2013-08-23 18:37:00,
2013-08-23 11:42:00,59.9,57.2,28.66,NW,315,0.0,3.0,91,0.00,,,0.21,meteohub,2013-08-23 18:42:00,
2013-08-23 11:47:00,60.1,57.4,28.66,NW,315,0.0,2.0,91,0.00,,,0.21,meteohub,2013-08-23 18:47:00,
2013-08-23 11:52:00,60.3,57.6,28.69,West,270,0.0,2.0,91,0.00,,,0.21,meteohub,2013-08-23 18:52:00,
2013-08-23 11:57:00,60.1,57.4,28.69,WSW,248,0.0,2.0,91,0.00,,,0.21,meteohub,2013-08-23 18:57:00,
2013-08-23 12:02:00,60.4,57.7,28.69,WSW,248,0.0,0.0,91,0.00,,,0.21,meteohub,2013-08-23 19:02:00,
2013-08-23 12:07:00,60.4,57.7,28.66,WSW,248,1.0,0.0,91,0.00,,,0.21,meteohub,2013-08-23 19:07:00,
2013-08-23 12:12:00,60.3,57.6,28.66,WSW,248,0.0,1.0,91,0.00,,,0.21,meteohub,2013-08-23 19:12:00,
2013-08-23 12:17:00,60.4,57.7,28.66,West,270,0.0,1.0,91,0.00,,,0.21,meteohub,2013-08-23 19:17:00,
2013-08-23 12:22:00,60.6,57.9,28.66,West,270,0.0,2.0,91,0.00,,,0.21,meteohub,2013-08-23 19:22:00,
2013-08-23 12:27:00,60.6,57.9,28.66,West,270,0.0,2.0,91,0.00,,,0.21,meteohub,2013-08-23 19:27:00,
2013-08-23 12:32:00,60.6,57.9,28.66,West,270,0.0,0.0,91,0.00,,,0.21,meteohub,2013-08-23 19:32:00,
2013-08-23 12:37:00,60.6,57.9,28.69,West,270,0.0,0.0,91,0.00,,,0.21,meteohub,2013-08-23 19:37:00,
2013-08-23 12:42:00,61.0,58.3,28.69,West,270,0.0,0.0,91,0.00,,,0.21,meteohub,2013-08-23 19:42:00,
2013-08-23 12:47:00,60.8,57.9,28.69,WNW,292,0.0,3.0,90,0.00,,,0.21,meteohub,2013-08-23 19:47:00,
2013-08-23 12:52:00,60.8,57.9,28.69,West,270,0.0,3.0,90,0.00,,,0.21,meteohub,2013-08-23 19:52:00,
2013-08-23 12:57:00,60.6,57.7,28.69,WNW,292,1.0,3.0,90,0.00,,,0.21,meteohub,2013-08-23 19:57:00,
2013-08-23 13:02:00,60.8,57.9,28.69,NW,315,2.0,2.0,90,0.00,,,0.21,meteohub,2013-08-23 20:02:00,
2013-08-23 13:07:00,61.0,58.1,28.69,WNW,292,0.0,3.0,90,0.00,,,0.21,meteohub,2013-08-23 20:07:00,
2013-08-23 13:12:00,61.3,58.5,28.69,WSW,248,0.0,3.0,90,0.00,,,0.21,meteohub,2013-08-23 20:12:00,
2013-08-23 13:17:00,61.3,58.5,28.69,WSW,248,0.0,3.0,90,0.00,,,0.21,meteohub,2013-08-23 20:17:00,
2013-08-23 13:22:00,61.5,58.6,28.69,WSW,248,0.0,0.0,90,0.00,,,0.21,meteohub,2013-08-23 20:22:00,
2013-08-23 13:27:00,61.5,58.6,28.69,SW,225,0.0,0.0,90,0.00,,,0.21,meteohub,2013-08-23 20:27:00,
2013-08-23 13:32:00,61.7,58.8,28.69,SW,225,0.0,0.0,90,0.00,,,0.21,meteohub,2013-08-23 20:32:00,
2013-08-23 13:37:00,62.1,59.2,28.69,SW,225,0.0,0.0,90,0.00,,,0.21,meteohub,2013-08-23 20:37:00,
2013-08-23 13:42:00,62.2,59.4,28.69,SSW,202,0.0,0.0,90,0.00,,,0.21,meteohub,2013-08-23 20:42:00,
2013-08-23 13:47:00,62.8,59.5,28.69,SSW,202,0.0,0.0,89,0.00,,,0.21,meteohub,2013-08-23 20:47:00,
2013-08-23 13:52:00,62.6,59.4,28.69,SSW,202,0.0,0.0,89,0.00,,,0.21,meteohub,2013-08-23 20:52:00,
2013-08-23 13:57:00,62.8,59.5,28.69,SSW,202,0.0,0.0,89,0.00,,,0.21,meteohub,2013-08-23 20:57:00,
2013-08-23 14:02:00,63.1,59.5,28.69,NW,315,0.0,0.0,88,0.00,,,0.21,meteohub,2013-08-23 21:02:00,
2013-08-23 14:07:00,63.5,59.5,28.66,NW,315,0.0,2.0,87,0.00,,,0.21,meteohub,2013-08-23 21:07:00,
2013-08-23 14:12:00,64.0,59.2,28.66,North,0,0.0,2.0,84,0.00,,,0.21,meteohub,2013-08-23 21:12:00,
2013-08-23 14:17:00,64.2,59.5,28.66,North,0,0.0,1.0,85,0.00,,,0.21,meteohub,2013-08-23 21:17:00,
2013-08-23 14:22:00,64.4,59.5,28.66,WNW,292,1.0,2.0,84,0.00,,,0.21,meteohub,2013-08-23 21:22:00,
2013-08-23 14:27:00,64.4,58.5,28.66,WSW,248,0.0,3.0,81,0.00,,,0.21,meteohub,2013-08-23 21:27:00,
2013-08-23 14:32:00,64.6,58.6,28.66,WSW,248,0.0,3.0,81,0.00,,,0.21,meteohub,2013-08-23 21:32:00,
2013-08-23 14:37:00,64.6,59.0,28.66,WSW,248,0.0,2.0,82,0.00,,,0.21,meteohub,2013-08-23 21:37:00,
2013-08-23 14:42:00,65.3,59.7,28.66,WSW,248,1.0,1.0,82,0.00,,,0.21,meteohub,2013-08-23 21:42:00,
2013-08-23 14:48:00,65.5,58.8,28.66,SSE,158,0.0,1.0,79,0.00,,,0.21,meteohub,2013-08-23 21:48:00,
2013-08-23 14:53:00,65.1,59.2,28.66,SSE,158,1.0,1.0,81,0.00,,,0.21,meteohub,2013-08-23 21:53:00,
2013-08-23 14:58:00,65.3,59.4,28.66,SW,225,0.0,2.0,81,0.00,,,0.21,meteohub,2013-08-23 21:58:00,
2013-08-23 15:04:00,64.9,58.6,28.66,SW,225,0.0,2.0,80,0.00,,,0.21,meteohub,2013-08-23 22:04:00,
2013-08-23 15:09:00,65.1,59.2,28.66,SSE,158,2.0,2.0,81,0.00,,,0.21,meteohub,2013-08-23 22:09:00,
2013-08-23 15:15:00,65.3,59.0,28.66,SSE,158,0.0,3.0,80,0.00,,,0.21,meteohub,2013-08-23 22:15:00,
2013-08-23 15:20:00,65.5,57.7,28.66,WNW,292,2.0,5.0,76,0.00,,,0.21,meteohub,2013-08-23 22:20:00,
2013-08-23 15:25:00,65.5,56.7,28.66,West,270,1.0,5.0,73,0.00,,,0.21,meteohub,2013-08-23 22:25:00,
2013-08-23 15:31:00,65.7,56.8,28.66,WSW,248,0.0,5.0,73,0.00,,,0.21,meteohub,2013-08-23 22:31:00,
2013-08-23 15:36:00,65.5,55.8,28.66,WNW,292,3.0,4.0,71,0.00,,,0.21,meteohub,2013-08-23 22:36:00,
2013-08-23 15:42:00,65.5,55.8,28.66,NW,315,0.0,5.0,71,0.00,,,0.21,meteohub,2013-08-23 22:42:00,
2013-08-23 15:47:00,65.7,55.6,28.66,NNW,338,2.0,5.0,70,0.00,,,0.21,meteohub,2013-08-23 22:47:00,
2013-08-23 15:52:00,65.7,54.9,28.66,WNW,292,3.0,5.0,68,0.00,,,0.21,meteohub,2013-08-23 22:52:00,
2013-08-23 15:57:00,65.5,54.7,28.66,NW,315,4.0,5.0,68,0.00,,,0.21,meteohub,2013-08-23 22:57:00,
2013-08-23 16:02:00,65.1,54.3,28.66,NW,315,0.0,5.0,68,0.00,,,0.21,meteohub,2013-08-23 23:02:00,
2013-08-23 16:07:00,65.5,55.0,28.66,WSW,248,0.0,5.0,69,0.00,,,0.21,meteohub,2013-08-23 23:07:00,
2013-08-23 16:12:00,65.8,55.4,28.66,NNE,22,2.0,4.0,69,0.00,,,0.21,meteohub,2013-08-23 23:12:00,
2013-08-23 16:17:00,66.0,55.6,28.66,North,0,2.0,3.0,69,0.00,,,0.21,meteohub,2013-08-23 23:17:00,
2013-08-23 16:22:00,66.0,55.9,28.63,WNW,292,1.0,3.0,70,0.00,,,0.21,meteohub,2013-08-23 23:22:00,
2013-08-23 16:27:00,65.7,56.5,28.63,WSW,248,2.0,3.0,72,0.00,,,0.21,meteohub,2013-08-23 23:27:00,
2013-08-23 16:32:00,65.7,55.2,28.63,WSW,248,0.0,2.0,69,0.00,,,0.21,meteohub,2013-08-23 23:32:00,
2013-08-23 16:37:00,65.8,55.4,28.63,SE,135,1.0,2.0,69,0.00,,,0.21,meteohub,2013-08-23 23:37:00,
2013-08-23 16:42:00,66.2,56.1,28.63,ESE,112,0.0,2.0,70,0.00,,,0.21,meteohub,2013-08-23 23:42:00,
2013-08-23 16:47:00,66.2,56.8,28.63,ESE,112,0.0,2.0,72,0.00,,,0.21,meteohub,2013-08-23 23:47:00,
2013-08-23 16:52:00,66.2,56.8,28.63,NNE,22,1.0,4.0,72,0.00,,,0.21,meteohub,2013-08-23 23:52:00,
2013-08-23 16:57:00,67.1,55.8,28.63,NNE,22,2.0,4.0,67,0.00,,,0.21,meteohub,2013-08-23 23:57:00,
2013-08-23 17:02:00,66.6,56.5,28.63,WSW,248,0.0,4.0,70,0.00,,,0.21,meteohub,2013-08-24 00:02:00,
2013-08-23 17:07:00,66.4,56.7,28.60,ESE,112,2.0,3.0,71,0.00,,,0.21,meteohub,2013-08-24 00:07:00,
2013-08-23 17:12:00,66.7,55.4,28.60,WNW,292,3.0,3.0,67,0.00,,,0.21,meteohub,2013-08-24 00:12:00,
2013-08-23 17:17:00,66.9,55.2,28.60,NNW,338,1.0,4.0,66,0.00,,,0.21,meteohub,2013-08-24 00:17:00,
2013-08-23 17:22:00,66.7,54.1,28.63,East,90,0.0,4.0,64,0.00,,,0.21,meteohub,2013-08-24 00:22:00,
2013-08-23 17:27:00,66.6,54.9,28.63,SE,135,0.0,4.0,66,0.00,,,0.21,meteohub,2013-08-24 00:27:00,
2013-08-23 17:32:00,66.4,55.6,28.63,SSE,158,0.0,3.0,68,0.00,,,0.21,meteohub,2013-08-24 00:32:00,
2013-08-23 17:37:00,65.8,56.1,28.63,WSW,248,1.0,2.0,71,0.00,,,0.21,meteohub,2013-08-24 00:37:00,
2013-08-23 17:42:00,65.8,57.0,28.63,South,180,0.0,4.0,73,0.00,,,0.21,meteohub,2013-08-24 00:42:00,
2013-08-23 17:47:00,65.8,57.7,28.63,South,180,0.0,4.0,75,0.00,,,0.21,meteohub,2013-08-24 00:47:00,
2013-08-23 17:52:00,66.6,57.2,28.60,SSE,158,1.0,4.0,72,0.00,,,0.21,meteohub,2013-08-24 00:52:00,
2013-08-23 17:57:00,66.7,57.4,28.60,NW,315,3.0,3.0,72,0.00,,,0.21,meteohub,2013-08-24 00:57:00,
2013-08-23 18:02:00,67.6,56.7,28.60,NNW,338,2.0,4.0,68,0.00,,,0.21,meteohub,2013-08-24 01:02:00,
2013-08-23 18:07:00,67.6,58.3,28.60,SSE,158,0.0,4.0,72,0.00,,,0.21,meteohub,2013-08-24 01:07:00,
2013-08-23 18:12:00,67.6,58.3,28.60,SSE,158,0.0,4.0,72,0.00,,,0.21,meteohub,2013-08-24 01:12:00,
2013-08-23 18:17:00,67.6,57.9,28.60,SE,135,0.0,2.0,71,0.00,,,0.21,meteohub,2013-08-24 01:17:00,
2013-08-23 18:22:00,66.6,57.6,28.60,South,180,0.0,2.0,73,0.00,,,0.21,meteohub,2013-08-24 01:22:00,
2013-08-23 18:27:00,65.8,58.1,28.60,South,180,0.0,2.0,76,0.00,,,0.21,meteohub,2013-08-24 01:27:00,
2013-08-23 18:32:00,65.5,57.4,28.60,South,180,0.0,2.0,75,0.00,,,0.21,meteohub,2013-08-24 01:32:00,
2013-08-23 18:37:00,65.1,57.4,28.63,South,180,0.0,0.0,76,0.00,,,0.21,meteohub,2013-08-24 01:37:00,
2013-08-23 18:42:00,64.8,57.4,28.63,South,180,0.0,0.0,77,0.00,,,0.21,meteohub,2013-08-24 01:42:00,
2013-08-23 18:47:00,64.2,57.9,28.63,South,180,0.0,0.0,80,0.00,,,0.21,meteohub,2013-08-24 01:47:00,
2013-08-23 18:52:00,63.9,57.6,28.63,South,180,0.0,0.0,80,0.00,,,0.21,meteohub,2013-08-24 01:52:00,
2013-08-23 18:57:00,63.5,57.9,28.63,South,180,0.0,0.0,82,0.00,,,0.21,meteohub,2013-08-24 01:57:00,
2013-08-23 19:02:00,63.1,57.9,28.63,South,180,0.0,0.0,83,0.00,,,0.21,meteohub,2013-08-24 02:02:00,
2013-08-23 19:07:00,63.0,57.4,28.63,WNW,292,0.0,0.0,82,0.00,,,0.21,meteohub,2013-08-24 02:07:00,
2013-08-23 19:12:00,62.6,57.0,28.63,SW,225,0.0,2.0,82,0.00,,,0.21,meteohub,2013-08-24 02:12:00,
2013-08-23 19:17:00,62.2,57.0,28.63,SW,225,0.0,2.0,83,0.00,,,0.21,meteohub,2013-08-24 02:17:00,
2013-08-23 19:22:00,61.9,57.0,28.63,SW,225,0.0,1.0,84,0.00,,,0.21,meteohub,2013-08-24 02:22:00,
2013-08-23 19:27:00,61.5,57.0,28.63,SW,225,0.0,0.0,85,0.00,,,0.21,meteohub,2013-08-24 02:27:00,
2013-08-23 19:32:00,61.3,57.2,28.63,SW,225,0.0,0.0,86,0.00,,,0.21,meteohub,2013-08-24 02:32:00,
2013-08-23 19:37:00,61.0,57.0,28.63,SW,225,0.0,0.0,87,0.00,,,0.21,meteohub,2013-08-24 02:37:00,
2013-08-23 19:42:00,60.8,56.8,28.63,SW,225,0.0,0.0,87,0.00,,,0.21,meteohub,2013-08-24 02:42:00,
2013-08-23 19:47:00,60.6,57.0,28.63,SW,225,0.0,0.0,88,0.00,,,0.21,meteohub,2013-08-24 02:47:00,
2013-08-23 19:52:00,60.4,57.2,28.63,SW,225,0.0,0.0,89,0.00,,,0.21,meteohub,2013-08-24 02:52:00,
2013-08-23 19:57:00,60.3,57.0,28.63,SW,225,0.0,0.0,89,0.00,,,0.21,meteohub,2013-08-24 02:57:00,
2013-08-23 20:02:00,59.9,56.7,28.63,SW,225,0.0,0.0,89,0.00,,,0.21,meteohub,2013-08-24 03:02:00,
2013-08-23 20:07:00,59.7,56.5,28.63,SW,225,0.0,0.0,89,0.00,,,0.21,meteohub,2013-08-24 03:07:00,
2013-08-23 20:12:00,59.5,56.3,28.63,WSW,248,0.0,0.0,89,0.00,,,0.21,meteohub,2013-08-24 03:12:00,
2013-08-23 20:17:00,59.5,56.3,28.63,SW,225,0.0,1.0,89,0.00,,,0.21,meteohub,2013-08-24 03:17:00,
2013-08-23 20:22:00,59.5,56.7,28.60,SSW,202,0.0,1.0,90,0.00,,,0.21,meteohub,2013-08-24 03:22:00,
2013-08-23 20:27:00,59.4,56.5,28.60,SSW,202,0.0,1.0,90,0.00,,,0.21,meteohub,2013-08-24 03:27:00,
2013-08-23 20:32:00,59.4,56.5,28.60,SSW,202,0.0,0.0,90,0.00,,,0.21,meteohub,2013-08-24 03:32:00,
2013-08-23 20:37:00,59.2,56.5,28.60,SSW,202,0.0,0.0,91,0.00,,,0.21,meteohub,2013-08-24 03:37:00,
2013-08-23 20:42:00,59.0,56.3,28.60,SSW,202,0.0,0.0,91,0.00,,,0.21,meteohub,2013-08-24 03:42:00,
2013-08-23 20:47:00,58.8,56.1,28.63,SSW,202,0.0,0.0,91,0.00,,,0.21,meteohub,2013-08-24 03:47:00,
2013-08-23 20:53:00,58.6,55.9,28.63,SSW,202,0.0,0.0,91,0.00,,,0.21,meteohub,2013-08-24 03:53:00,
2013-08-23 20:58:00,58.5,56.1,28.63,SSW,202,0.0,0.0,92,0.00,,,0.21,meteohub,2013-08-24 03:58:00,
2013-08-23 21:01:00,58.5,56.1,28.63,SSW,202,0.0,0.0,92,0.00,,,0.21,meteohub,2013-08-24 04:01:00,
2013-08-23 21:02:00,58.5,56.1,28.63,SSW,202,0.0,0.0,92,0.00,,,0.21,meteohub,2013-08-24 04:02:00,
2013-08-23 21:03:00,58.5,56.1,28.63,SSW,202,0.0,0.0,92,0.00,,,0.21,meteohub,2013-08-24 04:03:00,
2013-08-23 21:06:00,58.3,55.6,28.63,SSW,202,0.0,0.0,91,0.00,,,0.21,meteohub,2013-08-24 04:06:00,
2013-08-23 21:09:00,58.1,55.8,28.63,SSW,202,0.0,0.0,92,0.00,,,0.21,meteohub,2013-08-24 04:09:00,
2013-08-23 21:14:00,57.9,55.6,28.63,SSW,202,0.0,0.0,92,0.00,,,0.21,meteohub,2013-08-24 04:14:00,
2013-08-23 21:20:00,57.7,55.4,28.63,SSW,202,0.0,0.0,92,0.00,,,0.21,meteohub,2013-08-24 04:20:00,
2013-08-23 21:25:00,57.6,55.2,28.63,SSW,202,0.0,0.0,92,0.00,,,0.21,meteohub,2013-08-24 04:25:00,
2013-08-23 21:30:00,57.4,55.0,28.63,SSW,202,0.0,0.0,92,0.00,,,0.21,meteohub,2013-08-24 04:30:00,
2013-08-23 21:35:00,57.2,54.9,28.63,SSW,202,0.0,0.0,92,0.00,,,0.21,meteohub,2013-08-24 04:35:00,
2013-08-23 21:41:00,57.0,54.7,28.63,SSW,202,0.0,0.0,92,0.00,,,0.21,meteohub,2013-08-24 04:41:00,
2013-08-23 21:46:00,56.8,54.5,28.63,SSW,202,0.0,0.0,92,0.00,,,0.21,meteohub,2013-08-24 04:46:00,
2013-08-23 21:52:00,56.7,54.3,28.63,SSW,202,0.0,0.0,92,0.00,,,0.21,meteohub,2013-08-24 04:52:00,
2013-08-23 21:57:00,56.7,54.7,28.63,SSW,202,0.0,0.0,93,0.00,,,0.21,meteohub,2013-08-24 04:57:00,
2013-08-23 22:02:00,56.5,54.5,28.63,SSW,202,0.0,0.0,93,0.00,,,0.21,meteohub,2013-08-24 05:02:00,
2013-08-23 22:07:00,56.3,54.3,28.63,SSW,202,0.0,0.0,93,0.00,,,0.21,meteohub,2013-08-24 05:07:00,
2013-08-23 22:12:00,56.3,54.3,28.63,SSW,202,0.0,0.0,93,0.00,,,0.21,meteohub,2013-08-24 05:12:00,
2013-08-23 22:17:00,56.1,54.1,28.63,SSW,202,0.0,0.0,93,0.00,,,0.21,meteohub,2013-08-24 05:17:00,
2013-08-23 22:22:00,55.9,54.0,28.63,SSW,202,0.0,0.0,93,0.00,,,0.21,meteohub,2013-08-24 05:22:00,
2013-08-23 22:27:00,55.9,54.0,28.63,SSW,202,0.0,0.0,93,0.00,,,0.21,meteohub,2013-08-24 05:27:00,
2013-08-23 22:32:00,55.8,53.8,28.63,SSW,202,0.0,0.0,93,0.00,,,0.21,meteohub,2013-08-24 05:32:00,
2013-08-23 22:37:00,55.8,53.8,28.63,SSW,202,0.0,0.0,93,0.00,,,0.21,meteohub,2013-08-24 05:37:00,
2013-08-23 22:42:00,55.6,53.6,28.63,SSW,202,0.0,0.0,93,0.00,,,0.21,meteohub,2013-08-24 05:42:00,
2013-08-23 22:47:00,55.6,53.6,28.63,SSW,202,0.0,0.0,93,0.00,,,0.21,meteohub,2013-08-24 05:47:00,
2013-08-23 22:52:00,55.8,53.8,28.63,SSW,202,0.0,0.0,93,0.00,,,0.21,meteohub,2013-08-24 05:52:00,
2013-08-23 22:57:00,55.8,53.8,28.63,SSW,202,0.0,0.0,93,0.00,,,0.21,meteohub,2013-08-24 05:57:00,
2013-08-23 23:02:00,55.8,53.8,28.63,SSW,202,0.0,0.0,93,0.00,,,0.21,meteohub,2013-08-24 06:02:00,
2013-08-23 23:07:00,55.8,53.8,28.63,SSW,202,0.0,0.0,93,0.00,,,0.21,meteohub,2013-08-24 06:07:00,
2013-08-23 23:12:00,55.8,53.8,28.63,SSW,202,0.0,0.0,93,0.00,,,0.21,meteohub,2013-08-24 06:12:00,
2013-08-23 23:17:00,55.9,54.0,28.63,SSW,202,0.0,0.0,93,0.00,,,0.21,meteohub,2013-08-24 06:17:00,
2013-08-23 23:22:00,55.9,54.0,28.63,SSW,202,0.0,0.0,93,0.00,,,0.21,meteohub,2013-08-24 06:22:00,
2013-08-23 23:27:00,55.9,54.0,28.63,SSW,202,0.0,0.0,93,0.00,,,0.21,meteohub,2013-08-24 06:27:00,
2013-08-23 23:32:00,55.9,54.0,28.63,SSW,202,0.0,0.0,93,0.00,,,0.21,meteohub,2013-08-24 06:32:00,
2013-08-23 23:37:00,55.9,54.0,28.63,SSW,202,0.0,0.0,93,0.00,,,0.21,meteohub,2013-08-24 06:37:00,
2013-08-23 23:42:00,55.9,54.0,28.63,SSW,202,0.0,0.0,93,0.00,,,0.21,meteohub,2013-08-24 06:42:00,
2013-08-23 23:47:00,55.8,53.8,28.63,SSW,202,0.0,0.0,93,0.00,,,0.21,meteohub,2013-08-24 06:47:00,
2013-08-23 23:52:00,55.8,53.8,28.63,SSW,202,0.0,0.0,93,0.00,,,0.21,meteohub,2013-08-24 06:52:00,
2013-08-23 23:57:00,55.8,53.8,28.63,SSW,202,0.0,0.0,93,0.00,,,0.21,meteohub,2013-08-24 06:57:00,